Location: Northam
(31.6525°S, 116.6655°E)
Time: 07:36:18
(UTC+08:00)

N. Korean satellite - Pass Details

Date: 06 August 2021
Orbit: 448 x 499 km, 97.3° (Epoch: 17 September)

Event Time Altitude Azimuth Distance (km) Brightness Sun altitude
Rises 18:19:27 0° 191° (S) 2,568 10.2 -8.6°
Reaches altitude 10° 18:22:10 10° 214° (SSW) 1,689 9.6 -9.2°
Maximum altitude 18:24:22 16° 251° (WSW) 1,381 9.8 -9.7°
Drops below altitude 10° 18:26:34 10° 289° (WNW) 1,690 10.9 -10.1°
Sets 18:29:17 0° 311° (NW) 2,571 11.4 -10.7°
